Regional Weather Roundup
Issued by NWS

Home | Current Version | Previous Version | Graphics & Text | Print | Product List | Glossary Off
Versions: 1 2 3 4 5 6 7 8 9 10 11 12 13 14 15 16 17 18 19 20 21 22 23 24 25 26 27 28 29 30 31 32 33 34 35 36 37 38 39 40 41 42 43 44 45 46 47 48 49 50

000
ASUS43 KMPX 281701
RWRMN
WEATHER ROUNDUP FOR MINNESOTA
NATIONAL WEATHER SERVICE TWIN CITIES/CHANHASSEN MN
1100 AM CST SAT FEB 28 2015


NOTE: "FAIR" INDICATES FEW OR NO CLOUDS BELOW 12,000 FEET WITH NO
SIGNIFICANT WEATHER AND/OR OBSTRUCTIONS TO VISIBILITY. N/A MEANS
CURRENT SKY AND/OR WEATHER CONDITIONS ARE NOT AVAILABLE.

MNZ060>063-068>070-281800-
   Twin Cities Metro

CITY           SKY/WX    TMP DP  RH WIND       PRES   REMARKS
TWIN CITIES    MOSUNNY   15   1  53 S10       30.51S WCI   2
ST PAUL        SUNNY     15   1  53 SE12      30.54S WCI   2
CRYSTAL        SUNNY     17   2  51 S13       30.48F WCI   4
BLAINE         MOSUNNY   18   3  53 S12G17    30.48F WCI   5
LAKEVILLE      SUNNY     10   1  67 S8        30.51S WCI  -1
EDEN PRAIRIE   SUNNY     15   2  56 S10       30.49S WCI   2
SOUTH ST PAUL  FAIR      15   3  59 S10       30.53R WCI   2
LAKE ELMO      FAIR      14   3  62 S10       30.53R WCI   1
$$
MNZ001>005-007-008-013>017-022>024-027-028-281800-
   Northwest Minnesota

CITY           SKY/WX    TMP DP  RH WIND       PRES   REMARKS
BEMIDJI        SUNNY     13   1  58 S10       30.25S WCI   0
HALLOCK        CLOUDY    10   3  72 S20       30.18F WCI  -8
ROSEAU         MOSUNNY   16   5  62 S7        30.20S WCI   6
WARROAD        MOSUNNY   14   3  62 SW9       30.20F WCI   2
THIEF RVR FALL PTSUNNY   16   5  62 S20       30.20F WCI  -1
CROOKSTON      MOSUNNY   16   9  73 S22       30.23F WCI  -2
FOSSTON        MOSUNNY   16   5  62 S20       30.22F WCI  -1
DETROIT LAKES  SUNNY     18   7  62 S15       30.25F WCI   3
MOORHEAD       FAIR      18   9  68 S18       30.26F WCI   2
PARK RAPIDS    SUNNY     16   4  59 S14       30.28S WCI   2
MAHNOMEN       FAIR      15   5  66 S16G22    30.24F WCI  -1
$$
MNZ006-009>011-018-025>026-281800-
   North Central Minnesota

CITY           SKY/WX    TMP DP  RH WIND       PRES   REMARKS
BAUDETTE       MOSUNNY   14   0  53 S8        30.20F WCI   3
FLAG ISLAND    MOSUNNY    5  -2  72 SE14      30.19F WCI -12
INTL FALLS     MOSUNNY   17   0  47 S8        30.25F WCI   7
WASKISH        SUNNY     19   1  45 SE12      30.23S WCI   7
BIG FORK       MOSUNNY   16   1  53 S10G18    30.28F WCI   3
LONGVILLE      MOSUNNY   16   0  48 S10G23    30.31F WCI   3
GRAND RAPIDS   PTSUNNY   10   1  67 S12       30.32S WCI  -4
CRANE LAKE     MOSUNNY   14   0  52 S3        30.32F
ORR            MOSUNNY   16  -2  45 S8        30.27F WCI   5
COOK           PTSUNNY   14   0  52 S7        30.32F WCI   4
WALKER         FAIR      13  -1  53 S9        30.29S WCI   1
$$
MNZ012-019>021-037-281800-
   Northeast Minnesota

CITY           SKY/WX    TMP DP  RH WIND       PRES   REMARKS
DULUTH         MOSUNNY   13   1  59 S12       30.38S WCI  -1
ELY            PTSUNNY   14   0  52 SW9       30.32F WCI   2
HIBBING        PTSUNNY   14  -1  51 S8        30.34F WCI   3
EVELETH        PTSUNNY   12   1  62 S12       30.35F WCI  -2
DULUTH HARBOR  MOSUNNY   16   3  57 S12       30.47F WCI   3
TWO HARBORS    MOSUNNY   16   3  57 SW8       30.40S WCI   5
SILVER BAY     PTSUNNY   18   1  49 S10       30.38F WCI   6
GRAND MARAIS     N/A     15  10  80 SW24      30.44F WCI  -4
G MARAIS ARPRT FLURRIES  14   1  57 S12       30.33R WCI   0
$$
MNZ029>031-032-039>041-046>048-054>057-064-281800-
   West Central Minnesota

CITY           SKY/WX    TMP DP  RH WIND       PRES   REMARKS
FERGUS FALLS   MOSUNNY   16   5  62 S18       30.32F WCI  -1
WHEATON        MOSUNNY   16   7  67 S16       30.31F WCI   0
MORRIS         SUNNY     18   9  68 S17       30.32S WCI   2
ALEXANDRIA     SUNNY     14   3  61 S14       30.32F WCI  -1
ELBOW LAKE     FAIR      16   8  71 S23       30.30S WCI  -2
WADENA         SUNNY     16   3  57 S13G20    30.30F WCI   2
APPLETON       SUNNY     19   7  58 S16       30.35S WCI   5
BENSON         SUNNY     19   7  58 SW18      30.35F WCI   4
ORTONVILLE     MOSUNNY   18   5  57 S15       30.32S WCI   3
MADISON        PTSUNNY   19   9  63 S18       30.34S WCI   4
WILLMAR        FAIR      16   5  62 S8        30.40S WCI   5
$$
MNZ033>034-036-042>043-049>051-058-059-281800-
   Central Minnesota

CITY           SKY/WX    TMP DP  RH WIND       PRES   REMARKS
ST CLOUD       SUNNY     14   1  56 S16       30.42F WCI  -2
SAUK CENTRE    FAIR      17   5  58 S14G22    30.36F WCI   3
PAYNESVILLE    SUNNY     12   2  62 SE12G20   30.40S WCI  -2
AITKIN         PTSUNNY   18   3  53 S8        30.35F WCI   7
PINE RIVER     MOSUNNY   14   3  62 S10       30.35F WCI   1
BRAINERD       PTSUNNY   14   2  58 S15       30.36F WCI  -1
STAPLES        MOSUNNY   14   1  57 S13       30.33S WCI   0
LONG PRAIRIE   FAIR      16   5  62 S16G23    30.36S WCI   0
LITTLE FALLS   MOSUNNY   18   3  53 S13       30.38F WCI   4
LITCHFIELD     SUNNY     16   3  57 S7        30.42F WCI   6
MAPLE LAKE     SUNNY     16   5  61 S8        30.45S WCI   6
$$
MNZ037-044-045-052-053-281800-
   East Central Minnesota

CITY           SKY/WX    TMP DP  RH WIND       PRES   REMARKS
PRINCETON      SUNNY     16   1  53 S9        30.44S WCI   4
MORA           SUNNY     14   3  62 S10       30.45F WCI   1
RUSH CITY      SUNNY     14   2  59 S10       30.47F WCI   1
MOOSE LAKE     FAIR      16   1  53 SW12      30.41F WCI   3
HINCKLEY       FAIR      14   3  62 S8        30.45F WCI   3
CLOQUET        MOSUNNY   12   0  57 S13       30.39F WCI  -3
MCGREGOR       MOSUNNY   18   5  57 S12G17    30.38F WCI   5
$$
MNZ071>073-080-081-089-090-097-098-281800-
   Southwest Minnesota

CITY           SKY/WX    TMP DP  RH WIND       PRES   REMARKS
MONTEVIDEO     SUNNY     19   9  63 SW13G22   30.38S WCI   7
GRANITE FALLS  SUNNY     17   8  67 S17       30.40F WCI   1
CANBY          SUNNY     19   8  60 S12G22    30.35S WCI   7
MARSHALL       SUNNY     18   7  62 S20       30.38F WCI   1
REDWOOD FALLS  SUNNY     17   7  64 S17       30.43S WCI   1
OLIVIA         SUNNY     16   9  73 S13       30.41S WCI   2
PIPESTONE      SUNNY     14   9  79 S21       30.32S WCI  -4
WINDOM         SUNNY     16   5  62 S17G25    30.40S WCI   0
WORTHINGTON    SUNNY     19   3  49 S22       30.40S WCI   3
JACKSON        SUNNY     14   5  67 S13G22    30.41F WCI   0
TRACY          SUNNY     19   7  60 S17G25    30.38S WCI   4
SLAYTON        SUNNY     16   6  62 S17       30.35F WCI   0
$$
MNZ065>067-074>077-082>085-091>093-281800-
   South Central Minnesota

CITY           SKY/WX    TMP DP  RH WIND       PRES   REMARKS
MANKATO        SUNNY     12   0  57 S12       30.49S WCI  -2
NEW ULM        SUNNY     10   3  72 S14       30.45F WCI  -5
ST JAMES       SUNNY     12   3  67 S15       30.47F WCI  -4
FAIRMONT       SUNNY     10   3  72 S15       30.44F WCI  -6
GLENCOE        SUNNY     15   6  67 S9        30.47S WCI   3
FARIBAULT      SUNNY     10   1  67 S12       30.51S WCI  -4
OWATONNA       SUNNY     10   0  61 S12       30.51R WCI  -4
WASECA         SUNNY     12   3  67 S14       30.52R WCI  -3
ALBERT LEA     SUNNY      9   1  72 S12       30.50S WCI  -6
$$
MNZ078>079-086>088-094>096-281800-
   Southeast Minnesota

CITY           SKY/WX    TMP DP  RH WIND       PRES   REMARKS
ROCHESTER      SUNNY      5  -2  72 S14       30.52S WCI -12
RED WING       SUNNY     12   0  57 CALM      30.55F
STANTON        SUNNY     12   2  63 S9        30.52R WCI   0
DODGE CENTER   MOSUNNY    9   1  72 S15       30.50R WCI  -8
WINONA         SUNNY     14   1  57 S5        30.62S WCI   6
AUSTIN         SUNNY      3   0  85 S10       30.53R WCI -12
PRESTON        SUNNY      5  -3  69 S12       30.55R WCI -11
$$
ABBREVIATIONS USED IN REMARKS
   TC - TEMPERATURES IN CELSIUS
  WCI - WIND CHILL INDEX
   HX - HEAT INDEX
  VSB - VISIBILITY
$$



USA.gov is the U.S. government's official web portal to all federal, state and local government web resources and services.